Content
SEND FEEDBACK

Daily
Averages
Monthly
Summary
United States of America

POINT HOPE, ALASKA


Home > North America > United States > Alaska
Elevation: 4 feet     Latitude: 68 52N     Longitude: 166 07W

WEATHER
 
SELECT A DAY
Number of Records: 224,834;   Date Range: 1/1/95 - 7/26/14
 
SHARE

PRINT THIS DATA

[ ← Previous Day ]
WEATHER ALMANAC - JANUARY 3, 2013
[ Next Day → ]
[ °C ]   °F
Weather ElementAverageHighLow
Temperature2 °F4.5 °F (11:55 pm)0.3 °F (9:55 am)
Dewpoint-1.6 °F1.8 °F (11:55 pm)-4 °F (2:20 am)
Humidity85 %92 % (11:30 pm)78 % (2:20 am)
Barometer29.72 in29.77 in (11:55 pm)29.64 in (12:55 am)

Weather ElementAverage
Weather ElementTotal
Precipitation---
Heating Degree Days62.6 (Base 65)
Averaged from 53 records on January 3, 2013
WEATHER CONDITIONS BREAKOUT
WIND DIRECTION BREAKOUT
WEATHER BY HOUR - JANUARY 3, 2013
[ °C ]   °F
Local TimeTemperatureDewpointHumidityBarometerVisibilityWind DirectionWind SpeedGust SpeedPrecipitationEventsConditions
12:55 AM1.2 °F-2.7 °F83 %29.64 in7.0 miNorthSnowLight Snow
1:50 AM1.4 °F-2.2 °F85 %29.65 in7.0 miNorthSnowLight Snow
1:55 AM1.0 °F-3.1 °F83 %29.65 in7.0 miNorthSnowLight Snow
2:20 AM1.4 °F-4.0 °F78 %29.65 in10.0 miNorthSnowLight Snow
2:45 AM1.4 °F-4.0 °F78 %29.65 in8.0 miNorthSnowLight Snow
3:55 AM1.2 °F-2.7 °F83 %29.66 in6.0 miNorthSnowLight Snow
4:30 AM1.4 °F-2.2 °F85 %29.66 in6.0 miNorthSnowLight Snow
4:55 AM1.2 °F-2.2 °F86 %29.66 in4.0 miNorthSnowLight Snow
5:35 AM1.4 °F-2.2 °F85 %29.66 in4.0 miNorthSnowLight Snow
5:55 AM1.4 °F-2.6 °F83 %29.67 in10.0 miNorthSnowLight Snow
6:40 AM1.4 °F-2.2 °F85 %29.67 in4.0 miNorthSnowLight Snow
6:55 AM1.2 °F-2.4 °F85 %29.67 in2.5 miNorthSnowLight Snow
7:05 AM1.4 °F-2.2 °F85 %29.68 in3.0 miNorthSnowLight Snow
7:30 AM1.4 °F-2.2 °F85 %29.68 in4.0 miNorthSnowLight Snow
7:55 AM1.0 °F-2.6 °F85 %29.68 in8.0 miNorthSnowLight Snow
8:35 AM1.4 °F-2.2 °F85 %29.69 in10.0 miNorthSnowLight Snow
8:55 AM0.9 °F-3.3 °F83 %29.69 in10.0 miNorthSnowLight Snow
9:55 AM0.3 °F-3.3 °F85 %29.70 in10.0 miNorthSnowLight Snow
10:55 AM1.4 °F-2.2 °F85 %29.72 in5.0 miNorthSnowLight Snow
11:40 AM1.4 °F-2.2 °F85 %29.73 in1.8 miNorthSnowLight Snow
11:55 AM1.2 °F-1.7 °F88 %29.73 in2.5 miNorthSnowLight Snow
12:05 PM1.4 °F-2.2 °F85 %29.73 in3.0 miNorthSnowLight Snow
12:30 PM1.4 °F-2.2 °F85 %29.73 in2.5 miNorthSnowLight Snow
12:55 PM1.6 °F-2.2 °F84 %29.73 in5.0 miNorthSnowLight Snow
1:15 PM1.4 °F-2.2 °F85 %29.74 in4.0 miNorthSnowLight Snow
1:55 PM1.8 °F-1.8 °F85 %29.74 in6.0 miNorthSnowLight Snow
2:20 PM1.4 °F-2.2 °F85 %29.74 in10.0 miNorthSnowLight Snow
2:45 PM1.4 °F-2.2 °F85 %29.74 in3.0 miNorthSnowLight Snow
2:55 PM1.8 °F-1.3 °F87 %29.74 in2.5 miNorthSnowLight Snow
3:30 PM1.4 °F-2.2 °F85 %29.74 in10.0 miNorthSnowLight Snow
3:55 PM1.8 °F-1.1 °F88 %29.75 in2.5 miNorthSnowLight Snow
4:15 PM1.4 °F-2.2 °F85 %29.75 in5.0 miNorthSnowLight Snow
4:55 PM2.1 °F-1.5 °F85 %29.75 in6.0 miNorthSnowLight Snow
5:00 PM1.4 °F-2.2 °F85 %29.75 in2.5 miNorthSnowLight Snow
5:25 PM3.2 °F-0.4 °F85 %29.75 in4.0 miNorthSnowLight Snow
5:50 PM3.2 °F-0.4 °F85 %29.75 in2.5 miNorthSnowLight Snow
5:55 PM2.3 °F-1.1 °F86 %29.75 in2.0 miNorthSnowLight Snow
6:20 PM3.2 °F-0.4 °F85 %29.75 in1.5 miNorthSnowLight Snow
6:45 PM3.2 °F-0.4 °F85 %29.75 in2.5 miNorthSnowLight Snow
6:55 PM2.7 °F-0.9 °F85 %29.75 in2.0 miNorthSnowLight Snow
7:10 PM3.2 °F-0.4 °F85 %29.74 in2.5 miNorthSnowLight Snow
7:35 PM3.2 °F-0.4 °F85 %29.75 in6.0 miNorthSnowLight Snow
7:55 PM2.8 °F0.0 °F88 %29.75 in3.0 miNorthSnowLight Snow
8:20 PM3.2 °F-0.4 °F85 %29.75 in2.5 miNorthSnowLight Snow
8:55 PM3.2 °F0.1 °F87 %29.75 in2.5 miNorthSnowLight Snow
9:25 PM3.2 °F-0.4 °F85 %29.75 in1.5 miNorthSnowLight Snow
9:50 PM3.2 °F-0.4 °F85 %29.75 in3.0 miNorthSnowLight Snow
9:55 PM3.4 °F-0.2 °F85 %29.75 in4.0 miNorthSnowLight Snow
10:20 PM3.2 °F-0.4 °F85 %29.75 in6.0 miNorthSnowLight Snow
10:45 PM3.2 °F-0.4 °F85 %29.76 in6.0 miNorthSnowLight Snow
10:55 PM3.6 °F0.1 °F86 %29.76 in8.0 miNorthSnowLight Snow
11:30 PM3.2 °F1.4 °F92 %29.76 in2.5 miNorthSnowLight Snow
11:55 PM4.5 °F1.8 °F89 %29.77 in7.0 miNorthSnowLight Snow
Hourly data recorded from PALU, located miles away from Point Hope, Alaska







STORIES FROM OUR PARTNERS